• Join FlightAware (Why Join?)
  • Login
  • US Flag 
12:11PM EDT


 

Airport Tracker/Info


-or-


 

Live Flight TrackerFlight Track Log ✈ SKW4841 ✈ 02-Sep-2013 ✈ KGFK - KMSP

Flight Track Log - Related Links

Times and Time Zones

All times are in EDT time to prevent confusion due to time zone crossing. See the SKW4841 flight status page for this flight to view local times or setup timezone preferences in your user account.

Time Position Orientation Groundspeed Altitude Reporting Facility
EDT Latitude Longitude Course Direction KTS MPH feet Rate Location/Type
04:17PM 47.8639 -97.1808 181° South 178 205 4,400  Level Minneapolis Center
04:18PM 47.7994 -97.1667 172° South 203 234 7,100 2,580 Climbing Minneapolis Center
04:19PM 47.7089 -97.1406 169° South 265 305 9,800 2,400 Climbing Minneapolis Center
04:20PM 47.6444 -97.0519 137° Southeast 305 351 12,100 1,740 Climbing Minneapolis Center
04:21PM 47.5881 -96.9464 128° Southeast 340 391 13,400 1,320 Climbing Minneapolis Center
04:22PM 47.5222 -96.8219 128° Southeast 367 422 14,900 1,440 Climbing Minneapolis Center
04:23PM 47.4517 -96.6906 128° Southeast 383 441 16,400 1,380 Climbing Minneapolis Center
04:24PM 47.3803 -96.5572 128° Southeast 400 460 17,800 1,200 Climbing Minneapolis Center
04:25PM 47.3200 -96.4456 129° Southeast 404 465 19,000 1,320 Climbing Minneapolis Center
04:26PM 47.2356 -96.2878 128° Southeast 408 470 20,600 1,500 Climbing Minneapolis Center
04:27PM 47.1633 -96.1586 129° Southeast 409 471 22,100 1,380 Climbing Minneapolis Center
04:28PM 47.0928 -96.0283 128° Southeast 409 471 23,500 1,320 Climbing Minneapolis Center
04:29PM 47.0222 -95.9008 129° Southeast 405 466 24,900 720 Climbing Minneapolis Center
04:30PM 46.9414 -95.7556 129° Southeast 417 480 25,000  Climbing Minneapolis Center
04:31PM 46.8619 -95.6133 129° Southeast 448 516 25,000  Level Minneapolis Center
04:32PM 46.7978 -95.4975 129° Southeast 458 527 25,000  Level Minneapolis Center
04:33PM 46.6983 -95.3192 129° Southeast 471 542 25,000 -180 Level Minneapolis Center
04:35PM 46.5961 -95.1394 130° Southeast 481 554 24,700 -540 Descending Minneapolis Center
04:36PM 46.5078 -94.9850 130° Southeast 495 570 24,000 -360 Descending Minneapolis Center
04:37PM 46.4186 -94.8306 130° Southeast 502 578 24,000  Level Minneapolis Center
04:38PM 46.3239 -94.6886 134° Southeast 496 571 24,000  Level Minneapolis Center
04:39PM 46.2253 -94.5497 136° Southeast 497 572 24,000  Level Minneapolis Center
04:40PM 46.1114 -94.3867 135° Southeast 497 572 24,000  Level Minneapolis Center
04:41PM 46.0128 -94.2467 135° Southeast 499 574 24,000  Level Minneapolis Center
04:42PM 45.9153 -94.1083 135° Southeast 496 571 24,000 -540 Level Minneapolis Center
04:43PM 45.8156 -93.9689 136° Southeast 498 573 23,000 -1,500 Descending Minneapolis Center
04:44PM 45.7158 -93.8292 136° Southeast 502 578 20,900 -2,040 Descending Minneapolis Center
04:45PM 45.6031 -93.6742 136° Southeast 475 547 18,800 -2,100 Descending Minneapolis Center
04:46PM 45.5053 -93.5625 141° Southeast 453 521 16,600 -2,040 Descending Minneapolis Center
04:47PM 45.3897 -93.5025 160° South 439 505 14,600 -1,920 Descending Minneapolis Center
04:48PM 45.2783 -93.4431 159° South 430 495 12,700 -1,680 Descending Minneapolis Center
04:49PM 45.1681 -93.3842 159° South 425 489 11,200 -1,440 Descending Minneapolis Center
04:50PM 45.0700 -93.3311 159° South 367 422 9,800 -1,440 Descending Minneapolis Center
04:51PM 44.9903 -93.2517 145° Southeast 289 333 8,300 -900 Descending Minneapolis Center
04:52PM 44.9472 -93.1572 123° Southeast 284 327 8,000 -1,020 Descending Minneapolis Center
04:53PM 44.9047 -93.0642 123° Southeast 280 322 6,200 -1,200 Descending Minneapolis Center
04:54PM 44.8692 -92.9869 123° Southeast 230 265 5,600 -1,020 Descending Minneapolis Center
04:55PM 44.8356 -92.9167 124° Southeast 215 247 4,200 -780 Descending Minneapolis Center
04:56PM 44.7814 -92.9358 194° South 206 237 4,000 -240 Descending Minneapolis Center
04:57PM 44.7953 -92.9997 287° West 183 211 3,800 -660 Descending Minneapolis Center
04:58PM 44.8306 -93.0744 304° West 193 222 2,700 -900 Descending Minneapolis Center
04:59PM 44.8522 -93.1275 300° West 150 173 2,000 -780 Descending Minneapolis Center
05:00PM 44.8722 -93.1725 302° West 138 159 1,200 -780 Descending Minneapolis Center
05:02PM 44.8667 -93.2167 270° West  Level FlightAware Approximate
05:09PM 44.8820 -93.2218 270° West  Level Estimated